Regional Weather Roundup
Issued by NWS

Home | Current Version | Previous Version | Text Only | Print | Product List | Glossary On
Versions: 1 2 3 4 5 6 7 8 9 10 11 12 13 14 15 16 17 18 19 20 21 22 23 24 25 26 27
000
ASUS45 KTFX 252010
RWRMT
MONTANA REGIONAL WEATHER ROUNDUP
NATIONAL WEATHER SERVICE GREAT FALLS MT
200 PM MDT THU MAY 25 2017

NOTE: "FAIR" INDICATES FEW OR NO CLOUDS BELOW 12000 FEET WITH NO
SIGNIFICANT WEATHER AND/OR OBSTRUCTIONS TO VISIBILITY.

MTZ001>007-043-252100-
WEST OF THE DIVIDE

CITY           SKY/WX    TMP DP  RH WIND       PRES   REMARKS
KALISPELL      PTSUNNY   63  41  44 NE10      29.79S
MISSOULA       MOSUNNY   61  33  35 SE5       29.80S
BUTTE          CLOUDY    47  26  44 W3        29.84R
MULLAN PASS    CLOUDY    47  30  51 N3        29.85R
ANACONDA         N/A     50  28  43 SW5       29.83F
EUREKA           N/A     63  37  39 NW8       29.78F
HAMILTON         N/A     57  34  41 W8        29.80F
RONAN            N/A     62  31  31 NW7       29.86S
$$

MTZ008-052>055-252100-
SOUTHWEST MONTANA

CITY           SKY/WX    TMP DP  RH WIND       PRES   REMARKS
BOZEMAN        CLOUDY    50  39  66 E8        29.84R
DILLON         PTSUNNY   53  30  41 N14G22    29.81S
W YELLOWSTONE  CLOUDY    46  23  39 E12       29.82R
ENNIS          CLOUDY    48  30  49 N10       29.88S
THREE FORKS      N/A     53  32  45 SW2       29.84R
$$

MTZ009-010-012-014-046-048-049-054-252100-
EAST SLOPES AND CENTRAL MONTANA

CITY           SKY/WX    TMP DP  RH WIND       PRES   REMARKS
CUT BANK       PTSUNNY   55  36  48 N25G35    29.76R
GREAT FALLS    PTSUNNY   58  30  34 NW28G35   29.76R
MALMSTROM AFB  MOSUNNY   57  32  38 N24G31    29.75R
HELENA         PTSUNNY   59  32  36 NW16G24   29.79S
CHOTEAU          N/A     55  32  41 N23G33    29.79S
CONRAD           N/A     59  45  59 W26       29.80R
POWER            N/A     57  29  35 N26G39    29.75R
$$

MTZ011-013-016-021-045-047-050-051-252100-
NORTH CENTRAL MONTANA

CITY           SKY/WX    TMP DP  RH WIND       PRES   REMARKS
HAVRE          CLOUDY    53  39  59 NW23G40   29.64R
LEWISTOWN      CLOUDY    47  35  63 NW20G30   29.71R
N BAR RANCH    CLOUDY    46  36  66 NW25G33   29.69R
CHINOOK          N/A     52  41  66 NW24G35   29.60R
FORT BENTON      N/A     57  36  44 CALM        N/A
GEYSER         PTSUNNY   53  35  49 NW29G39   29.72R
$$

MTZ017>020-022>027-061-062-252100-
NORTHEAST MONTANA

CITY           SKY/WX    TMP DP  RH WIND       PRES   REMARKS
GLASGOW        CLOUDY    58  40  51 NW29G38   29.46R
JORDAN           N/A     57  40  52 NW29G39   29.54R
SIDNEY         CLOUDY    59  44  57 W21G26    29.43R
WOLF POINT     CLOUDY    62  39  42 W28G38    29.43R
MALTA          CLOUDY    57  43  58 NW30G45   29.53R
PLENTYWOOD       N/A     57  39  51 W26G38    29.34R
POPLAR           N/A     61  37  41 W23G29    29.41R
$$

MTZ028>42-056>058-252100-
SOUTHCENTRAL AND SOUTHEAST MONTANA

CITY           SKY/WX    TMP DP  RH WIND       PRES   REMARKS
BAKER          CLOUDY    57  40  52 W23G31    29.54R
BILLINGS       CLOUDY    57  37  47 W21G28    29.70R
LIVINGSTON     CLOUDY    47  35  63 W15G23    29.80R
MILES CITY     CLOUDY    57  41  55 W23G31    29.56R
BIG TIMBER     MOSUNNY   50  36  57 W28G39    29.79R
FORSYTH          N/A     54  39  58 W18G31    29.60R
LAUREL           N/A     55  34  45 SW13      29.73R
ROUNDUP          N/A     56  34  43 W25       29.62R
$$

REGIONAL REPORTS...DAKOTAS

CITY           SKY/WX    TMP DP  RH WIND       PRES   REMARKS
WILLISTON      CLOUDY    61  45  55 W17G23    29.39R
MINOT          SUNNY     70  42  36 W16G29    29.38R
DICKINSON      MOSUNNY   64  40  41 W29G39    29.46R
BISMARCK       SUNNY     75  36  24 W10G23    29.43S
GRAND FORKS    CLOUDY    68  47  46 SE21G33   29.48S
FARGO          CLOUDY    67  48  50 SE24G35   29.49F
BUFFALO SD       N/A     66  37  34 W28G35    29.47R
RAPID CITY     LGT RAIN  61  36  39 N8G20     29.57R
$$

REGIONAL REPORTS...WYOMING/IDAHO/WASHINGTON

CITY           SKY/WX    TMP DP  RH WIND       PRES   REMARKS
GILLETTE       MOSUNNY   60  39  45 NW18G25   29.64R
SHERIDAN       CLOUDY    54  38  54 NW22G36   29.69R
BUFFALO WY     CLOUDY    52  35  52 N29G41    29.69R
CODY           CLOUDY    51  31  46 N7        29.75R
YELLOWSTONE LA   N/A     40  22  48 N5        29.85R
IDAHO FALLS    MOSUNNY   59  26  28 N9        29.78F
SALMON         MOSUNNY   57  30  35 NW5       29.74F
BOISE          MOSUNNY   63  31  30 W12       29.74F
SPOKANE        CLOUDY    58  39  49 SW6       29.85S
$$

REGIONAL REPORTS...ALBERTA

CITY           SKY/WX    TMP DP  RH WIND       PRES   REMARKS
EDMONTON       PTSUNNY   59  37  44 N20G30    29.70S
CALGARY        PTSUNNY   55  37  50 N24G38    29.78R
LETHBRIDGE     PTSUNNY   57  37  47 NW22G29   29.75R
MEDICINE HAT   CLOUDY    55  34  44 NW31G43   29.62R
WATERTON GATE    N/A     54  36  50 W6          N/A
MILK RIVER       N/A     57  39  51 N28G36      N/A
ONEFOUR          N/A     50  37  62 NW30G37     N/A
$$

REGIONAL REPORTS...SASKATCHEWAN

CITY           SKY/WX    TMP DP  RH WIND       PRES   REMARKS
SWIFT CURRENT  PTSUNNY   50  45  81 NW20G29   29.41R
REGINA         LGT RAIN  50  45  81 W12       29.28R
SASKATOON      LGT RAIN  50  45  81 E7        29.34R
ROCKGLEN         N/A     52  41  66 NW16G23     N/A
ASSINIBOIA       N/A     57  37  47 N25G33      N/A
$$




USA.gov is the U.S. government's official web portal to all federal, state and local government web resources and services.